{"data":{"norad_id":59856,"epoch":"2026-05-25T04:56:10.092768Z","epoch_age_seconds":60462,"freshness":"FRESH","line1":"1 59856U 24097X   26145.20567237 -.00000826  00000+0 -20512-4 0  9996","line2":"2 59856  43.0025 201.8275 0001390 286.9247  73.1452 15.27577367113620","mean_motion":15.27577367,"eccentricity":0.000139,"inclination_deg":43.0025,"raan_deg":201.8275,"arg_perigee_deg":286.9247,"mean_anomaly_deg":73.1452,"bstar":-2.0512e-5,"rev_number":11362,"period_min":94.266911195994,"perigee_km":482.10327423695,"apogee_km":484.01068616344,"semimajor_km":6861.1939802002,"source":"CELESTRAK","updated_at":"2026-05-25T13:38:19.089592Z"}}